Flag for Canada Weather past 2 weeks in Haldimand, Ontario, Canada

Now
64 °F

Partly sunny.


Feels Like: 64 °F
Forecast: N/A
Wind: 7 mph from Northwest

Location: Hamilton Airport

Current Time: Apr 28, 2015 at 4:41:51 PM

Latest Report: Apr 28, 2015 at 4:00 PM


Visibility: 15 mi

Pressure: 29.95 "Hg

Humidity: 43%

Dew point: 41 °F

Location of HaldimandLocation

Historic Weather in Haldimand — Graph

°F

Haldimand temperature yesterday

Maximum temperature yesterday: 50 °F (at 3:00 PM)
Minimum temperature yesterday: 39 °F (at 6:00 AM)
Average temperature yesterday: 44 °F

Past Weeks' High & Low Weather Summary

 TemperatureHumidityPressure
High75 °F (Apr 13, 3:00 PM)100% (Apr 17, 3:00 AM)30.41 "Hg (Apr 17, 3:00 AM)
Low27 °F (Apr 24, 4:00 AM)21% (Apr 18, 5:00 PM)29.36 "Hg (Apr 20, 4:00 PM)
Average45 °F64%29.94 "Hg
* Reported Apr 13 3:00 PM — Apr 28 3:00 PM, Haldimand, Weather by CustomWeather, © 2015

Note: Actual official high and low records may vary slightly from our data, if they occured in-between our weather recording intervals... More about our weather records

Advertising

Haldimand weather history for previous 24 hours

 ConditionsComfort  
Time TempWeatherWind HumidityBarometerVisibility
3:00 PM
Tue, Apr 28
63 °FPartly sunny.5 mph49%29.98 "Hg15 mi
2:00 PM64 °FBroken clouds.7 mph46%30.00 "Hg15 mi
1:00 PM59 °FScattered clouds.9 mph55%30.02 "Hg15 mi
12:00 PM55 °FPassing clouds.5 mph59%30.04 "Hg15 mi
11:00 AM54 °FPassing clouds.7 mph63%30.06 "Hg15 mi
10:00 AM50 °FPassing clouds.5 mph67%30.06 "Hg15 mi
9:00 AM46 °FScattered clouds.7 mph71%30.06 "Hg15 mi
8:00 AM43 °FPassing clouds.6 mph76%30.05 "Hg15 mi
7:00 AM37 °FPassing clouds.6 mph87%30.04 "Hg15 mi
6:00 AM34 °FPassing clouds.7 mph87%30.04 "Hg15 mi
5:00 AM37 °FPassing clouds.6 mph81%30.03 "Hg15 mi
4:00 AM37 °FPassing clouds.5 mph81%30.03 "Hg15 mi
3:00 AM39 °FPassing clouds.7 mph75%30.03 "Hg15 mi
2:00 AM41 °FPassing clouds.10 mph76%30.03 "Hg15 mi
1:00 AM41 °FPassing clouds.8 mph76%30.03 "Hg15 mi
12:00 AM43 °FPassing clouds.12 mph71%30.02 "Hg15 mi
11:00 PM
Mon, Apr 27
45 °FPassing clouds.13 mph66%30.02 "Hg15 mi
10:00 PM46 °FPartly cloudy.13 mph57%30.01 "Hg15 mi
9:00 PM48 °FBroken clouds.12 mph58%29.99 "Hg15 mi
8:00 PM48 °FPartly sunny.5 mph66%29.97 "Hg15 mi
7:00 PM50 °FOvercast.7 mph62%29.96 "Hg15 mi
6:00 PM50 °FPartly sunny.9 mph62%29.95 "Hg15 mi
5:00 PM48 °FMostly cloudy.12 mph66%29.95 "Hg15 mi
4:00 PM50 °FMostly cloudy.10 mph58%29.93 "Hg15 mi
Weather by CustomWeather, © 2015

See weather overviewHow to use our weather pages